"Time","Temp","Dewpoint","Humidity","Pressure","Direction","Speed","Gust","Precip","PrecipRate"
"00:04:56","62.3","60.6","94","29.99","333","2.3","4.8","0.00","0.00"
"00:09:58","62.2","60.5","94","29.99","353","1.2","4.8","0.00","0.00"
"00:14:58","62","60.3","94","29.99","344","1.6","6","0.00","0.00"
"00:19:57","62","60.3","94","29.99","342","0.3","3.5","0.00","0.00"
"00:24:56","61.9","60.2","94","29.99","347","1.7","4.8","0.00","0.00"
"00:29:58","61.8","60.1","93.8","29.99","348","0.6","3.5","0.00","0.00"
"00:34:57","61.7","60","94","29.99","347","0.6","3.6","0.00","0.00"
"00:39:57","61.5","59.8","94","29.99","0","1.6","3.6","0.00","0.00"
"00:44:56","61.3","59.6","94","29.99","341","2.3","15.6","0.00","0.00"
"00:49:58","61.2","59.2","93.1","29.99","340","4","16.1","0.00","0.00"
"00:54:58","61.3","59","92","29.99","336","1.4","6","0.00","0.00"
"00:59:56","61.2","58.9","92","29.99","358","2.4","6","0.00","0.00"
"01:04:56","61","58.7","92","29.99","5","1.7","4.8","0.00","0.00"
"01:09:56","60.8","58.5","92","29.99","5","1","3.6","0.00","0.00"
"01:14:59","60.6","58.3","92","29.99","5","1.5","4.8","0.00","0.00"
"01:19:58","60.4","58.1","92","29.99","326","1.6","7.2","0.00","0.00"
"01:24:57","60.2","57.9","92","29.99","340","1.8","6","0.00","0.00"
"01:29:56","59.9","57.4","91.1","29.99","349","0.1","2.3","0.00","0.00"
"01:34:59","59.7","57.1","91","29.99","349","0.4","3.6","0.00","0.00"
"01:39:58","59.5","56.9","91","29.99","349","1.2","3.6","0.00","0.00"
"01:44:58","59.3","56.7","91","29.99","350","0","1.2","0.00","0.00"
"01:49:56","59.1","56.5","91","29.99","350","0.1","1.2","0.00","0.00"
"01:54:56","58.9","56.3","91.1","29.99","350","0.1","1.2","0.00","0.00"
"01:59:58","58.6","56.2","91.8","29.99","349","0.8","4.8","0.00","0.00"
"02:04:58","58.3","55.9","91.9","29.99","348","0.6","4.6","0.00","0.00"
"02:09:58","58","55.7","91.8","29.99","348","0.3","3.6","0.00","0.00"
"02:14:57","57.8","55.5","92","29.99","354","0.8","4.8","0.00","0.00"
"02:19:56","57.5","55.2","92","29.99","353","1.1","4.8","0.00","0.00"
"02:24:56","57.2","54.9","91.8","29.99","341","1.9","10.8","0.00","0.00"
"02:29:58","57.1","54.6","91.3","29.99","348","2.3","7.2","0.00","0.00"
"02:34:57","57","54.4","90.8","29.99","345","1.5","3.6","0.00","0.00"
"02:39:58","56.9","54.3","90.9","29.99","345","0.5","3.5","0.00","0.00"
"02:44:57","56.8","53.9","90.2","30.00","346","0.2","2.3","0.00","0.00"
"02:49:56","56.7","53.9","90.3","30.00","345","0","1.2","0.00","0.00"
"02:54:56","56.5","53.9","91","30.00","345","0","1.2","0.00","0.00"
"02:59:59","56.2","53.6","91","30.00","345","0.3","4.8","0.00","0.00"
"03:04:57","55.9","53.3","91","30.00","345","0.1","1.2","0.00","0.00"
"03:09:57","55.6","53.1","91.4","30.00","345","0","1.2","0.00","0.00"
"03:14:56","55.3","53","92","30.00","345","1","3.6","0.00","0.00"
"03:19:59","55","52.8","92.2","30.00","345","0.9","4.8","0.00","0.00"
"03:24:58","55","52.7","92","30.00","345","1.8","6","0.00","0.00"
"03:29:57","55.1","52.6","91.4","30.00","4","1.1","7.2","0.00","0.00"
"03:34:56","55.3","52.3","89.7","30.00","328","2","6","0.00","0.00"
"03:39:57","55.6","52.2","88.4","30.00","348","2.3","12","0.00","0.00"
"03:44:55","55.8","52.1","87.5","30.01","345","3.1","10.4","0.00","0.00"
"03:49:56","55.9","52.1","87","30.01","4","3.1","13.2","0.00","0.00"
"03:54:58","55.9","51.8","86","30.01","356","2.8","11.5","0.00","0.00"
"03:59:56","55.9","51.8","86","30.02","346","3.7","12","0.00","0.00"
"04:04:56","55.9","51.8","86","30.02","351","3.7","10.8","0.00","0.00"
"04:09:59","55.9","51.7","85.8","30.02","347","2.6","7.2","0.00","0.00"
"04:14:58","55.7","51.6","86","30.02","350","3.3","9.6","0.00","0.00"
"04:19:57","55.5","51.4","86","30.02","338","3.7","10.8","0.00","0.00"
"04:24:58","55.5","51.1","85.2","30.02","343","4.2","12","0.00","0.00"
"04:29:56","55.4","51","85.2","30.03","340","2.6","4.8","0.00","0.00"
"04:34:59","55.3","50.9","85.1","30.03","351","1.2","4.6","0.00","0.00"
"04:39:56","55.2","50.9","85.3","30.03","351","0.5","2.4","0.00","0.00"
"04:44:56","55","50.9","86","30.04","351","0","2.4","0.00","0.00"
"04:49:59","54.6","50.6","86.2","30.04","351","0.4","3.6","0.00","0.00"
"04:54:56","54.3","50.5","87","30.04","351","0","1.2","0.00","0.00"
"04:59:59","53.9","50.2","87.3","30.04","351","0","0","0.00","0.00"
"05:04:59","53.5","50","88","30.04","351","0","1.2","0.00","0.00"
"05:09:59","53.1","49.9","89","30.04","351","0","0","0.00","0.00"
"05:14:59","52.7","49.8","89.8","30.04","351","0","0","0.00","0.00"
"05:19:58","52.3","49.5","90","30.04","351","0","0","0.00","0.00"
"05:24:58","52.1","49.3","90","30.04","351","0","0","0.00","0.00"
"05:29:57","51.9","49.4","91","30.05","351","0","0","0.00","0.00"
"05:34:56","51.7","49.2","91","30.05","351","0","0","0.00","0.00"
"05:39:58","51.5","49","91","30.05","58","0","1.2","0.00","0.00"
"05:44:57","51.2","48.9","91.5","30.05","58","0","0","0.00","0.00"
"05:49:56","51","48.8","92.1","30.05","24","0","0","0.00","0.00"
"05:54:56","50.8","48.8","93","30.05","131","0.1","1.2","0.00","0.00"
"05:59:56","50.6","48.7","93","30.06","344","0","0","0.00","0.00"
"06:04:56","50.4","48.7","94","30.06","344","0","0","0.00","0.00"
"06:09:57","50.3","48.6","94","30.06","343","0","0","0.00","0.00"
"06:14:57","50.1","48.4","94","30.06","159","0","1.2","0.00","0.00"
"06:19:56","50","48.5","94.8","30.06","159","0","0","0.00","0.00"
"06:24:57","49.9","48.4","94.8","30.06","158","0.1","2.4","0.00","0.00"
"06:29:56","49.8","48.4","95","30.07","157","0.3","1.2","0.00","0.00"
"06:34:59","49.8","48.4","95","30.07","157","0","0","0.00","0.00"
"06:39:56","49.9","48.6","95.5","30.07","157","0","0","0.00","0.00"
"06:44:59","49.9","48.8","96","30.07","277","0.2","3.6","0.00","0.00"
"06:49:58","50.2","49.1","96","30.07","330","0.7","3.6","0.00","0.00"
"06:54:58","50.5","49.4","96","30.07","339","0.7","3.5","0.00","0.00"
"06:59:57","50.8","49.7","95.8","30.08","340","0.5","2.4","0.00","0.00"
"07:04:57","51.2","49.8","95","30.08","343","0.4","3.6","0.00","0.00"
"07:09:57","51.8","49.8","93.1","30.08","312","1","4.8","0.00","0.00"
"07:14:56","52.6","49.9","90.7","30.08","259","1.6","4.8","0.00","0.00"
"07:19:58","53.5","50.2","88.7","30.08","298","1.1","3.6","0.00","0.00"
"07:24:58","54.1","50.2","86.6","30.08","353","1.9","4.8","0.00","0.00"
"07:29:56","54.6","50.1","84.5","30.08","335","1.8","4.8","0.00","0.00"
"07:34:59","55.2","49.9","82.6","30.08","342","1.7","4.8","0.00","0.00"
"07:39:56","55.6","50.1","81.5","30.08","307","2.7","6","0.00","0.00"
"07:44:58","56","50.5","81.7","30.09","303","1.1","3.6","0.00","0.00"
"07:49:57","56.3","50.5","80.8","30.09","279","1.4","4.8","0.00","0.00"
"07:54:59","56.7","50.6","80.3","30.09","328","2.1","8.4","0.00","0.00"
"07:59:58","57","50","77.4","30.09","335","4","10.8","0.00","0.00"
"08:04:58","57.3","50.2","77.1","30.09","346","2.3","7.2","0.00","0.00"
"08:09:57","57.5","50.5","77.3","30.09","310","3.5","10.8","0.00","0.00"
"08:14:56","57.8","50.5","76.7","30.09","326","3.1","6","0.00","0.00"
"08:19:59","58.1","50.6","75.9","30.09","305","3.8","8.4","0.00","0.00"
"08:24:58","58.5","50.8","75.5","30.09","324","3.4","12","0.00","0.00"
"08:29:56","58.8","50.8","74.6","30.09","322","3.9","10.8","0.00","0.00"
"08:34:59","59","50.6","73.7","30.08","300","3.8","10.8","0.00","0.00"
"08:39:59","59.2","50.9","73.8","30.08","294","3.2","10.8","0.00","0.00"
"08:44:58","59.5","50.6","72.5","30.09","291","4.5","12","0.00","0.00"
"08:49:56","59.6","50.5","72","30.09","302","3.9","8.4","0.00","0.00"
"08:54:57","59.7","50.7","72.2","30.09","337","3.2","7.2","0.00","0.00"
"08:59:56","59.9","51","72.4","30.09","348","3.8","8.4","0.00","0.00"
"09:04:59","60.2","51.4","72.7","30.09","299","3.5","8.4","0.00","0.00"
"09:09:58","60.5","51.4","71.9","30.09","326","4.1","12","0.00","0.00"
"09:14:58","60.7","51.2","70.9","30.09","318","4.1","12","0.00","0.00"
"09:19:57","61","51.8","71.6","30.08","323","2.7","7.2","0.00","0.00"
"09:24:57","61.3","51.5","70.4","30.08","337","3.2","7.2","0.00","0.00"
"09:29:56","61.6","52.1","71.1","30.08","290","3.6","7.2","0.00","0.00"
"09:34:59","62.1","52.6","71","30.08","254","2.7","7.2","0.00","0.00"
"09:39:56","62.3","51.9","69","30.08","318","4","10.8","0.00","0.00"
"09:44:59","62.4","52.5","70.1","30.08","314","2.7","7.2","0.00","0.00"
"09:49:57","62.8","52.2","68.4","30.08","311","4","8.4","0.00","0.00"
"09:54:57","63","52.8","69.2","30.08","280","3.3","8.4","0.00","0.00"
"09:59:56","63.5","53.3","69.6","30.08","298","3.5","8.4","0.00","0.00"
"10:04:59","63.8","52.5","66.8","30.08","301","3.4","10.8","0.00","0.00"
"10:09:58","63.9","52","65.2","30.08","273","5.8","17.3","0.00","0.00"
"10:14:58","63.9","51.9","65","30.08","322","6.1","16.1","0.00","0.00"
"10:19:57","64","52.3","65.6","30.08","313","6","15","0.00","0.00"
"10:24:57","64.3","53","66.7","30.08","0","2.1","15","0.00","0.00"
"10:29:56","64.9","53.2","65.8","30.08","339","2.7","13.2","0.00","0.00"
"10:34:59","65.5","53.5","65.1","30.08","350","3.9","15.6","0.00","0.00"
"10:39:56","65.7","52.9","63.2","30.08","357","5.6","16.1","0.00","0.00"
"10:44:59","65.4","52.5","63.2","30.08","338","5.4","12","0.00","0.00"
"10:49:58","65.1","52.3","63.1","30.08","327","5.4","16.8","0.00","0.00"
"10:54:58","66","53.2","63.3","30.08","272","4.7","10.8","0.00","0.00"
"10:59:57","66","53","63","30.08","293","5.6","15.6","0.00","0.00"
"11:04:57","66.2","53.3","63.1","30.07","303","5.2","18.4","0.00","0.00"
"11:09:59","66.4","52.6","61.2","30.07","304","5.6","12","0.00","0.00"
"11:14:59","66.8","54","63.6","30.07","323","3.4","10.4","0.00","0.00"
"11:19:58","67.7","53.8","61.2","30.07","335","5.6","16.1","0.00","0.00"
"11:24:58","67.3","52.4","58.9","30.07","316","5.5","15.6","0.00","0.00"
"11:29:57","67.6","52.7","58.9","30.07","320","4.1","10.8","0.00","0.00"
"11:34:56","68.4","54.3","60.6","30.07","284","4.4","15","0.00","0.00"
"11:39:57","69","53.6","58.1","30.07","347","4.2","13.2","0.00","0.00"
"11:44:56","69.4","53.4","56.8","30.07","319","3.6","11.5","0.00","0.00"
"11:49:59","69.4","52.8","55.6","30.06","343","5.2","20.4","0.00","0.00"
"11:54:59","69.8","53","55.4","30.06","336","5.1","20.7","0.00","0.00"
"11:59:59","69.8","52.7","54.7","30.06","331","3.9","12","0.00","0.00"
"12:04:58","70.4","53.6","55.4","30.06","335","4","12","0.00","0.00"
"12:09:57","70.5","53.8","55.5","30.06","356","4.6","10.8","0.00","0.00"
"12:14:59","70.6","53.9","55.5","30.06","315","5","12","0.00","0.00"
"12:19:57","70.5","53.3","54.6","30.06","302","3.5","11.5","0.00","0.00"
"12:24:57","70.6","53","53.8","30.06","328","6.1","18.4","0.00","0.00"
"12:29:56","70.9","53.2","53.5","30.06","319","4.7","15","0.00","0.00"
"12:34:56","71.6","54.8","55.5","30.05","327","4.1","15","0.00","0.00"
"12:39:58","72","54.4","54","30.05","342","3.9","10.8","0.00","0.00"
"12:44:58","72.2","54.3","53.5","30.05","355","5.6","13.2","0.00","0.00"
"12:49:57","71.7","53.1","52.1","30.05","347","5.1","12.7","0.00","0.00"
"12:54:57","71.7","53.3","52.3","30.05","341","5.2","15","0.00","0.00"
"12:59:56","72","53.3","51.7","30.05","329","5","20.7","0.00","0.00"
"13:04:56","71.8","52.7","50.9","30.05","300","5.5","17.3","0.00","0.00"
"13:09:59","72","53.1","51.6","30.05","333","5.9","16.1","0.00","0.00"
"13:14:59","72.3","54","52.6","30.05","316","3.8","12.7","0.00","0.00"
"13:19:59","72.9","54","51.6","30.05","231","2.9","6","0.00","0.00"
"13:24:59","73.2","54.4","52","30.05","270","3.2","7.2","0.00","0.00"
"13:29:59","73.2","54","51.1","30.05","327","3.4","8.4","0.00","0.00"
"13:34:59","73.1","53.7","50.6","30.04","307","4.5","12","0.00","0.00"
"13:39:56","72.6","52.7","49.7","30.04","335","7","15","0.00","0.00"
"13:44:59","72.7","54.1","52.2","30.04","331","3.7","15","0.00","0.00"
"13:49:58","73.7","54.7","51.5","30.04","346","4.9","19.2","0.00","0.00"
"13:54:58","73.8","53.7","49.6","30.04","350","5.2","19.6","0.00","0.00"
"13:59:57","74","54","49.5","30.04","321","6.1","13.2","0.00","0.00"
"14:04:57","74.3","54.8","50.6","30.03","345","3.7","12","0.00","0.00"
"14:09:59","74.3","53.9","49","30.03","261","4.4","12","0.00","0.00"
"14:14:56","74.5","54.6","50","30.03","336","5.1","12","0.00","0.00"
"14:19:59","75.3","55.7","50.7","30.03","320","3","7.2","0.00","0.00"
"14:24:59","75.5","55.4","49.8","30.03","342","5.4","15","0.00","0.00"
"14:29:57","75.3","55.5","50.4","30.03","5","3.3","10.4","0.00","0.00"
"14:34:57","75.7","55.5","49.6","30.03","323","4.3","13.2","0.00","0.00"
"14:39:58","75.5","54.6","48.4","30.03","324","5","13.2","0.00","0.00"
"14:44:58","75.7","54.9","48.5","30.03","315","3.7","8.4","0.00","0.00"
"14:49:57","75.9","54.8","47.9","30.02","308","4.2","10.8","0.00","0.00"
"14:54:58","76.1","54.7","47.7","30.02","355","4.8","17.3","0.00","0.00"
"14:59:57","76.6","55.2","47.6","30.02","334","4.3","13.2","0.00","0.00"
"15:04:57","76.4","54.2","46.1","30.02","333","6.7","17.3","0.00","0.00"
"15:09:56","76.5","55.6","48.6","30.02","357","2.6","8.4","0.00","0.00"
"15:14:56","77.1","55.1","46.6","30.02","320","3.9","10.8","0.00","0.00"
"15:19:56","76.6","52.8","43.7","30.02","290","3.8","10.4","0.00","0.00"
"15:24:57","76.2","52.2","43.2","30.02","329","4.9","10.8","0.00","0.00"
"15:29:56","76.5","54.4","46.5","30.02","297","2.1","8.1","0.00","0.00"
"15:34:59","77.1","53.6","44.2","30.02","301","3.2","10.8","0.00","0.00"
"15:39:57","76.8","53","43.7","30.02","353","3","10.8","0.00","0.00"
"15:44:57","77.1","53.5","44","30.02","337","5.2","12","0.00","0.00"
"15:49:56","77.2","52.6","42.5","30.02","344","5.4","16.1","0.00","0.00"
"15:54:56","77.1","53.5","44.1","30.02","297","4.1","10.8","0.00","0.00"
"15:59:58","77.4","54.5","45.3","30.02","313","3.1","12","0.00","0.00"
"16:04:58","77.7","53.9","43.8","30.02","348","5.4","16.1","0.00","0.00"
"16:09:57","77.6","53.6","43.5","30.02","348","3.5","11.5","0.00","0.00"
"16:14:58","78.3","54.7","44.3","30.02","345","3","7.2","0.00","0.00"
"16:19:57","78.3","53","41.6","30.01","325","5.5","12","0.00","0.00"
"16:24:57","77.8","52.7","41.7","30.01","327","5.4","17.3","0.00","0.00"
"16:29:57","77.9","52.8","41.9","30.01","337","3.2","7.2","0.00","0.00"
"16:34:57","77.9","53.6","43","30.01","337","3.9","12","0.00","0.00"
"16:39:59","78.4","54.2","43.3","30.01","9","4","13.2","0.00","0.00"
"16:44:58","78.7","53.3","41.5","30.01","332","3.7","13.2","0.00","0.00"
"16:49:59","78.5","53.2","41.5","30.01","322","4.2","13.2","0.00","0.00"
"16:54:56","78.7","54.3","42.9","30.01","323","3","9.6","0.00","0.00"
"16:59:57","79","53.3","41.1","30.01","332","4.4","12","0.00","0.00"
"17:04:59","79","53.9","41.9","30.01","285","2.4","7.2","0.00","0.00"
"17:09:55","79.1","53.2","40.8","30.01","340","5.8","16.1","0.00","0.00"
"17:14:57","79","54.3","42.6","30.01","335","1.9","6.9","0.00","0.00"
"17:19:58","79.2","54.7","42.9","30.01","339","3","6","0.00","0.00"
"17:24:56","79.4","53.9","41.4","30.01","339","2.8","9.6","0.00","0.00"
"17:29:57","79.4","54.3","42","30.01","317","2.8","10.8","0.00","0.00"
"17:34:58","79.2","53.3","40.7","30.01","336","3.8","15.6","0.00","0.00"
"17:39:56","79.1","53.6","41.3","30.01","7","4.7","16.1","0.00","0.00"
"17:44:57","78.8","52.6","40.4","30.01","345","4.2","12","0.00","0.00"
"17:49:56","78.4","53.5","42.1","30.01","338","3.1","10.4","0.00","0.00"
"17:54:56","78.2","53.7","42.7","30.01","211","3.2","12","0.00","0.00"
"17:59:56","78","53.4","42.5","30.01","341","3.4","8.4","0.00","0.00"
"18:04:56","78","54.1","43.7","30.01","341","2.3","7.2","0.00","0.00"
"18:09:59","78","54.5","44.5","30.01","336","2.6","7.2","0.00","0.00"
"18:14:59","77.7","53.7","43.6","30.01","355","2.5","12","0.00","0.00"
"18:19:58","77.3","53.2","43.2","30.00","357","3.2","8.4","0.00","0.00"
"18:24:59","77","53.1","43.5","30.00","335","1.9","7.2","0.00","0.00"
"18:29:58","76.8","53","43.6","30.00","344","3.4","12","0.00","0.00"
"18:34:57","76.8","53.1","43.8","30.00","347","2.8","8.1","0.00","0.00"
"18:39:59","76.6","54.4","46.2","30.00","343","1.3","6","0.00","0.00"
"18:44:58","76.5","53.7","45.2","30.00","343","2.3","6","0.00","0.00"
"18:49:57","76.3","53","44.4","30.00","348","1.9","6","0.00","0.00"
"18:54:58","76.1","53.7","45.8","30.00","344","1.1","4.8","0.00","0.00"
"18:59:57","75.8","53.8","46.5","30.01","339","1.6","6","0.00","0.00"
"19:04:57","75.5","53.1","45.6","30.01","348","1.7","7.2","0.00","0.00"
"19:09:56","75.3","53.6","46.8","30.01","351","0.9","4.8","0.00","0.00"
"19:14:56","75.1","52.8","45.8","30.01","7","2.3","6","0.00","0.00"
"19:19:59","75","53.7","47.5","30.01","50","0.9","4.8","0.00","0.00"
"19:24:59","74.7","53.6","47.8","30.01","328","0.6","2.4","0.00","0.00"
"19:29:58","74.4","53.7","48.5","30.01","328","0.6","3.6","0.00","0.00"
"19:34:57","74.1","53.6","48.8","30.01","295","0.9","3.5","0.00","0.00"
"19:39:58","73.8","54.3","50.4","30.01","301","1.3","3.6","0.00","0.00"
"19:44:57","73.3","55.4","53.5","30.02","354","0.5","3.6","0.00","0.00"
"19:49:56","72.7","54.6","53","30.02","185","0.5","3.6","0.00","0.00"
"19:54:56","72.2","54.1","53","30.02","187","0.2","1.2","0.00","0.00"
"19:59:55","71.7","53.3","52.3","30.02","187","0.3","1.2","0.00","0.00"
"20:04:56","71.3","53.8","54","30.02","187","0.1","1.2","0.00","0.00"
"20:09:56","70.8","53.9","55.2","30.02","187","0","0","0.00","0.00"
"20:14:56","70.3","54.2","56.7","30.02","187","0","0","0.00","0.00"
"20:19:56","69.8","54.2","57.7","30.02","203","0","0","0.00","0.00"
"20:24:58","69.2","54.7","60","30.02","214","0","1.2","0.00","0.00"
"20:29:58","68.6","55.3","62.8","30.03","214","0","1.2","0.00","0.00"
"20:34:58","67.9","54.6","62.4","30.03","214","0","0","0.00","0.00"
"20:39:56","67.5","54","62","30.03","214","0","0","0.00","0.00"
"20:44:59","67.1","53.9","62.6","30.03","214","0","0","0.00","0.00"
"20:49:59","66.7","53.9","63.6","30.03","214","0","0","0.00","0.00"
"20:54:56","66.1","54.1","65.2","30.03","214","0","0","0.00","0.00"
"20:59:56","65.6","54","66.2","30.03","214","0","0","0.00","0.00"
"21:04:56","65.1","53.8","66.9","30.03","214","0","0","0.00","0.00"
"21:09:56","64.7","54","68.2","30.03","214","0","0","0.00","0.00"
"21:14:56","64.3","54.1","69.6","30.04","214","0","0","0.00","0.00"
"21:19:56","63.9","54.4","71.3","30.04","214","0","0","0.00","0.00"
"21:24:57","63.5","54.3","72","30.04","214","0","0","0.00","0.00"
"21:29:57","63.1","53.9","72","30.04","214","0","0","0.00","0.00"
"21:34:56","62.8","53.9","72.8","30.04","214","0","1.2","0.00","0.00"
"21:39:58","62.5","54","73.7","30.04","214","0","0","0.00","0.00"
"21:44:58","62.2","54.1","74.7","30.05","214","0","0","0.00","0.00"
"21:49:56","61.9","53.5","74","30.05","214","0","0","0.00","0.00"
"21:54:57","61.7","53.8","75.2","30.05","214","0","0","0.00","0.00"
"21:59:57","61.4","53.8","75.8","30.05","214","0","0","0.00","0.00"
"22:04:58","61.1","53.5","76","30.05","214","0","0","0.00","0.00"
"22:09:57","60.9","53.5","76.6","30.05","214","0","0","0.00","0.00"
"22:14:58","60.7","53.4","76.8","30.06","214","0","0","0.00","0.00"
"22:19:58","60.6","53.4","77.2","30.06","214","0","0","0.00","0.00"
"22:24:59","60.4","53.2","77","30.06","214","0","0","0.00","0.00"
"22:29:59","60.2","53","77","30.07","214","0","0","0.00","0.00"
"22:34:59","60","53.1","78","30.07","214","0","0","0.00","0.00"
"22:39:58","59.8","52.9","78","30.07","214","0","0","0.00","0.00"
"22:44:58","59.7","53.1","78.8","30.07","214","0","0","0.00","0.00"
"22:49:58","59.6","53.1","79","30.07","214","0","0","0.00","0.00"
"22:54:59","59.5","53","79","30.07","214","0.1","1.2","0.00","0.00"
"22:59:58","59.4","52.9","79","30.07","214","0.1","1.2","0.00","0.00"
"23:04:58","59.4","52.5","78.1","30.07","214","0.2","1.2","0.00","0.00"
"23:09:57","59.4","52.5","78","30.07","214","0.3","1.2","0.00","0.00"
"23:14:58","59.4","52.5","78","30.07","214","0.1","1.2","0.00","0.00"
"23:19:57","59.5","52.5","77.7","30.07","214","0.1","2.4","0.00","0.00"
"23:24:58","59.5","52.3","77","30.07","214","0","1.2","0.00","0.00"
"23:29:57","59.5","52.2","76.7","30.07","214","0.4","2.4","0.00","0.00"
"23:34:57","59.5","52","76.2","30.07","214","0.2","2.4","0.00","0.00"
"23:39:59","59.5","51.8","75.6","30.07","215","0.5","2.4","0.00","0.00"
"23:44:59","59.7","51.8","75","30.07","217","0.6","2.4","0.00","0.00"
"23:49:58","59.9","52","74.8","30.07","217","0.3","2.4","0.00","0.00"
